Home   Weather   Saskatoon   Past weeks
Flag for Canada

Past Weather in Saskatoon, Saskatchewan, Canada — Yesterday and Last 2 Weeks

Now
5 °F

Light snow. Overcast.


Feels Like: -10 °F
Forecast: 5 / -2 °F
Wind: 10 mph from East

Location: Saskatoon Weather Station

Current Time: Feb 16, 2019 at 2:05:22 pm

Latest Report: Feb 16, 2019 at 1:00 pm


Visibility: 2 mi

Pressure: 30.13 "Hg

Humidity: 78%

Dew Point: 0 °F

Location of SaskatoonLocation

Past Weather in Saskatoon — Graph

°F

Saskatoon Temperature Yesterday

Maximum temperature yesterday: -4 °F (at 11:00 pm)
Minimum temperature yesterday: -27 °F (at 7:00 am)
Average temperature yesterday: -16 °F

High & Low Weather Summary for the Past Weeks

 TemperatureHumidityPressure
High5 °F (Feb 16, 1:00 pm)85% (Feb 16, 11:00 am)30.97 "Hg (Feb 16, 11:00 am)
Low-45 °F (Feb 6, 9:00 am)63% (Feb 3, 5:00 pm)29.87 "Hg (Feb 2, 8:29 am)
Average-17 °F74%30.39 "Hg
* Reported Feb 1 1:00 pm — Feb 16 1:00 pm, Saskatoon. Weather by CustomWeather, © 2019

Note: Actual official high and low records may vary slightly from our data, if they occured in-between our weather recording intervals... More about our weather records

Advertising

Saskatoon Weather History for the Previous 24 Hours

Scroll right to see more
 ConditionsComfort  
Time TempWeatherWind HumidityBarometerVisibility
1:00 pm
Sat, Feb 16
5 °FLight snow. Overcast.10 mph78%30.13 "Hg2 mi
12:00 pm3 °FLight snow. Overcast.12 mph78%30.13 "Hg1 mi
11:27 am3 °FLight snow. Ice fog.15 mph78%30.12 "Hg1 mi
11:00 am1 °FLight snow. Ice fog.14 mph85%30.12 "Hg1 mi
10:00 am1 °FLight snow. Overcast.12 mph78%30.11 "Hg1 mi
9:38 am1 °FLight snow. Overcast.13 mph78%30.11 "Hg1 mi
9:00 am1 °FLight snow. Ice fog.12 mph78%30.10 "Hg1 mi
8:28 am0 °FLight snow. Ice fog.10 mph84%30.09 "Hg1 mi
8:00 am0 °FLight snow. Overcast.13 mph84%30.09 "Hg2 mi
7:00 am0 °FLight snow. Ice fog.12 mph84%30.08 "Hg2 mi
6:00 am0 °FLight snow. Ice fog.13 mph84%30.08 "Hg2 mi
5:27 am0 °FLight snow. Ice fog.12 mph78%30.08 "Hg2 mi
5:00 am0 °FLight snow. Ice fog.14 mph78%30.08 "Hg3 mi
4:22 am0 °FLight snow. Overcast.13 mph71%30.07 "Hg4 mi
4:00 am0 °FMostly cloudy.13 mph71%30.07 "Hg15 mi
3:00 am-2 °FPassing clouds.10 mph71%30.08 "Hg15 mi
2:00 am-2 °FPassing clouds.13 mph77%30.10 "Hg15 mi
1:00 am-2 °FPassing clouds.12 mph71%30.11 "Hg15 mi
12:00 am-2 °FPassing clouds.13 mph71%30.12 "Hg15 mi
11:00 pm
Fri, Feb 15
-4 °FPassing clouds.16 mph77%30.13 "Hg15 mi
10:00 pm-8 °FPassing clouds.9 mph77%30.17 "Hg15 mi
9:00 pm-8 °FPassing clouds.10 mph77%30.18 "Hg15 mi
8:00 pm-9 °FPassing clouds.12 mph77%30.20 "Hg15 mi
7:00 pm-8 °FPartly cloudy.14 mph77%30.20 "Hg12 mi
6:00 pm-9 °FPartly sunny.14 mph77%30.21 "Hg12 mi
5:00 pm-8 °FPartly sunny.13 mph77%30.21 "Hg15 mi
4:00 pm-6 °FPartly sunny.10 mph77%30.22 "Hg15 mi
3:00 pm-6 °FPartly sunny.10 mph77%30.22 "Hg15 mi
2:00 pm-9 °FPartly sunny.9 mph84%30.24 "Hg15 mi
Weather by CustomWeather, © 2019

See weather overview